Погода Илирней

Погода Илирней : погода сейчас, прогноз погоды и архив. Всё, что Вы хотите узнать о погоде Илирней!

Хотите узнать прогноз погоды Илирней? Тогда Вам сюда: Погода Илирней

Поиск расширенной информации на нашем сайте:

Другие новости

Новости СМИ2

Главная страница сайта

Новости сайта

03.07.2017

Напоминаем, что на нашем специализированном сайте Метеоцентр.Азия вы можете получить высокодетализированные автоматические прогнозы погоды по пунктам России, СНГ и мира в авиационном формате (включающие направление и скорость ветра, видимость, явления погоды, количество и форму облачности, нижнюю и верхнюю границу облачности).


Погода Илирней - сегодня

Время (UTC), дата Ветер
(°,м/с) 
Видим.   Явления Облачность Т
(°С)
Тd
(°С)
f(%) Тe
(°С)
Pmin
(гПа)
dP
(гПа)
Po
(мм)
O2
(г/м3)
Тmin Tmax R s Состояние
почвы
18 20.09.17 тихо () {02}  20000 м    ясно 
-12 -13.3 90 -12  1024.2  0.2  734  310           
21 20.09.17 тихо () {02}  20000 м    ясно 
-7.2 -8.5 90 -7  1023.3  -0.2  733  304  -12        влажная 
00 21.09.17 070 (В) 3{05}  20000 м    ясно 
+3 -4.2 59 +2  1020.1  -1.2  732  292           
03 21.09.17 130 (ЮВ) 2{06}  20000 м    ясно 
+5.7 -4.9 46 +5  1018.7  -1  732  289           
06 21.09.17 060 (СВ) 2{06}  20000 м    ясно 
+5.4 -3.4 53 +5  1018.1  -0.6  731  289           
09 21.09.17 тихо () {06}  20000 м    6/0 средняя 
[Ac trans]
+0.3 -3 78 1019.3  0.4  724  292    +6.8       
12 21.09.17 тихо () {04}  20000 м    8/0 средняя 
[Ac trans]
-3.3 -4.4 92 -3  1020.2  0.1  724  296           
15 21.09.17 тихо () {02}  20000 м    8/0 средняя 
[Ac trans]
-6.6 -7.4 94 -7  1020.7  724  300           
18 21.09.17 тихо () {02}  20000 м    8/0 средняя 
[Ac trans]
-8.7 -9.8 92 -9  1021  -0.1  732  305           
21 21.09.17 тихо () {01}  20000 м    ясно 
-4.9 -6.2 91 -5  1020.8  0.5  732  301  -9.4        влажная 
00 22.09.17 тихо () {03}  20000 м    ясно 
+3.4 -4 58 +3  1018.2  -1  724  288           
03 22.09.17 тихо () {02}  20000 м    ясно 
+7.8 -0.7 55 +8  1016.2  -0.9  731  286           
09 22.09.17 тихо () {03}  20000 м    ясно 
-1.7 -2.8 92 -2  1018.5  0.2  731  297    +7.8       
15 22.09.17 тихо () {02}  20000 м    ясно 
-7.5 -8.1 95 -8  1020.3  0.2  731  304           
18 22.09.17 тихо () {03}  20000 м    ясно 
-8.3 -8.5 98 -8  1020.9  0.4  732  305           
21 22.09.17 тихо () {04}  20000 м    ясно 
-9.4 -10.1 95 -9  1020.9  -0.2  731  306  -9.4        сухая 
00 23.09.17 100 (В) 1{03}  20000 м    10/0 средняя 
[Ac und]
-5.2 -7.7 83 -5  1019.4  -0.7  731  301           
03 23.09.17 тихо () {03}  20000 м    4/0 средняя 
[Ac trans]
+8 +0.4 59 +8  1016.3  -0.8  730  286           
06 23.09.17 тихо () {04}  20000 м    8/0 средняя 
[Ac trans]
+5.6 +0.1 68 +6  1016.7  -0.1  730  288           
09 23.09.17 тихо () {03}  20000 м    10/0 средняя 
[Ac und]
+1.9 -0.6 83 +2  1017.5  0.4  731  292    +8       
12 23.09.17 тихо () {04}  20000 м    8/0 средняя 
[Ac trans]
+0.5 -1.2 88 +1  1018.3  0.4  731  294           
15 23.09.17 тихо () {02}  20000 м    10/0 средняя 
[Ac und]
-1.8 -3.2 90 -2  1019  0.2  731  297           
18 23.09.17 тихо () {03}  20000 м    6/0 средняя 
[Ac trans]
-4 -4.9 93 -4  1019  -0.3  731  299           
21 23.09.17 тихо () {01}  20000 м    6/0 средняя 
[Ac trans]
-3.4 -3.8 97 -3  1019.5  0.5  731  299  -6        влажная 
00 24.09.17 тихо () {02}  20000 м    3/0 средняя 
[Ac trans]
+4.2 +0.3 76 +4  1017.4  -0.6  731  290           
Время (UTC), дата Ветер
(°,м/с) 
Видим.   Явления Облачность Т
(°С)
Тd
(°С)
f(%) Тe
(°С)
Pmin
(гПа)
dP
(гПа)
Po
(мм)
O2
(г/м3)
Тmin Tmax R s Состояние
почвы

Для получения пояснительной информации подведите курсор к названию столбца.

ПОГОДА Илирней - архив

Всё, что Вы хотите узнать о погоде Илирней - удобно и подробно!

Выберите нужную дату (начиная с 1 января 2015* года) и нажмите кнопку "Найти".
Будут отображены архивные сводки погоды по пункту Илирней, начиная с указанной даты.


Отображать данные в формате CSV (для использования в таблицах Excel)


Внимание! Наш архив погоды предназначен исключительно для личного некоммерческого использования в познавательных целях. Если Вам необходимы официальные справки о состоянии погоды (для производственных, юридических, коммерческих и т.п. целей), обращайтесь в органы Росгидромета.

*Примечание: данная дата относится к архиву по метеостанциям СССР (Россия, СНГ, Балтия).
Архив по метеостанциям Зарубежной Европы и Азии (кроме Китая) хранится 10 дней, по другим регионам земного шара (Китай, Африка, Америка, Австралия, Океания) - 1 день.

Илирней - район местоположения метеостанции


Название, широта, долгота, высота метеостанции:
Илирней 67.2°ш. 168°д. 353 м над ур. моря [Российская Федерация]

Дополнительная информация

В oтличие oт бoльшинства пoгoдных сайтoв мы публикуем пoдрoбную метеoинфoрмацию в детальнoм прoфессиoнальнoм фoрмате.

Характеристики температуры и влажнoсти вoздуха измеряются на высoте 2 м в тени вдали oт зданий и деревьев.
Скoрoсть ветра измеряется на высoте 10 м (на урoвне рoста челoвека скoрoсть ветра ниже в 1.5-2 раза). Если метеoстанция нахoдится в гoрoде или в лесу, тo скoрoсть ветра занижена на 2-4 м/с пo сравнению с oткрытым местoм. Скoрoсть ветра над акватoриями крупных рек и oзёр, а также на вершинах хoлмoв на 2-5 м/с выше, чем в oбычных услoвиях.
Атмoсфернoе давление в разных тoчках местнoсти мoжет значительнo oтличаться oт давления на метеoстанции, в зависимoсти oт услoвий рельефа (при пoдъёме на 10 м давление пoнижается примернo на 1 мм рт.ст.).